| time (UTC) | temp F | wind direction | speed MPH | gust MPH | rain 1hr in | rain 24hr in | rain mn in | humidity % | barometer mb |
| 20260505223003 | 82 | 193 | 5.0 | 8.0 | 0.00 | 0.02 | 0.01 | 91 | 1007.8 |
| 20260505221502 | 82 | 161 | 2.0 | 8.0 | 0.00 | 0.02 | 0.01 | 91 | 1007.8 |
| 20260505220003 | 83 | 291 | 1.0 | 7.0 | 0.00 | 0.02 | 0.01 | 89 | 1007.8 |
| 20260505214606 | 83 | 290 | 3.0 | 8.0 | 0.00 | 0.02 | 0.01 | 90 | 1007.8 |
| 20260505213105 | 82 | 238 | 4.0 | 11.0 | 0.00 | 0.02 | 0.01 | 90 | 1007.8 |
| 20260505211603 | 82 | 258 | 4.0 | 9.0 | 0.00 | 0.02 | 0.01 | 89 | 1007.8 |
| 20260505210058 | 82 | 241 | 4.0 | 9.0 | 0.00 | 0.02 | 0.01 | 91 | 1007.8 |
| 20260505204600 | 83 | 262 | 5.0 | 10.0 | 0.00 | 0.02 | 0.01 | 92 | 1007.8 |
| 20260505203056 | 82 | 194 | 6.0 | 11.0 | 0.00 | 0.02 | 0.01 | 91 | 1007.7 |
| 20260505201553 | 83 | 252 | 5.0 | 11.0 | 0.00 | 0.02 | 0.01 | 91 | 1007.9 |
| 20260505200051 | 83 | 207 | 9.0 | 13.0 | 0.00 | 0.02 | 0.01 | 90 | 1008.2 |
| 20260505194550 | 83 | 213 | 7.0 | 12.0 | 0.00 | 0.02 | 0.01 | 89 | 1008.4 |
| 20260505193049 | 83 | 262 | 7.0 | 13.0 | 0.00 | 0.02 | 0.01 | 90 | 1008.6 |
| 20260505191554 | 82 | 188 | 7.0 | 14.0 | 0.00 | 0.02 | 0.01 | 91 | 1008.9 |
| 20260505190046 | 83 | 230 | 8.0 | 12.0 | 0.00 | 0.02 | 0.01 | 90 | 1009.2 |
| 20260505184543 | 82 | 210 | 9.0 | 13.0 | 0.00 | 0.02 | 0.01 | 91 | 1009.6 |
| 20260505183041 | 82 | 202 | 8.0 | 14.0 | 0.00 | 0.02 | 0.01 | 90 | 1009.9 |
| 20260505181540 | 83 | 165 | 6.0 | 11.0 | 0.00 | 0.02 | 0.01 | 90 | 1010.1 |
| 20260505180048 | 83 | 205 | 7.0 | 12.0 | 0.00 | 0.02 | 0.01 | 90 | 1010.3 |
| 20260505174551 | 82 | 224 | 7.0 | 13.0 | 0.00 | 0.02 | 0.01 | 90 | 1010.4 |
| 20260505173037 | 82 | 207 | 7.0 | 12.0 | 0.00 | 0.02 | 0.01 | 90 | 1010.5 |
| 20260505171537 | 82 | 172 | 5.0 | 12.0 | 0.00 | 0.02 | 0.01 | 91 | 1010.8 |
| 20260505170041 | 82 | 184 | 5.0 | 9.0 | 0.00 | 0.02 | 0.01 | 92 | 1010.8 |
| 20260505164539 | 82 | 218 | 5.0 | 13.0 | 0.00 | 0.02 | 0.01 | 91 | 1010.8 |
| 20260505163039 | 81 | 250 | 5.0 | 10.0 | 0.00 | 0.02 | 0.01 | 92 | 1010.8 |
| 20260505161533 | 82 | 199 | 6.0 | 10.0 | 0.00 | 0.02 | 0.01 | 91 | 1011.1 |